TimeCDT,TemperatureF,Dew PointF,Humidity,Sea Level PressureIn,VisibilityMPH,Wind Direction,Wind SpeedMPH,Gust SpeedMPH,PrecipitationIn,Events,Conditions,WindDirDegrees,DateUTC
12:53 AM,75.9,66.9,74,29.97,10.0,NNE,5.8,-,N/A,,Clear,20,2013-08-17 05:53:00
1:53 AM,75.9,66.9,74,29.96,10.0,North,6.9,-,N/A,,Mostly Cloudy,10,2013-08-17 06:53:00
2:53 AM,73.9,66.0,76,29.94,10.0,North,6.9,-,N/A,,Clear,360,2013-08-17 07:53:00
3:53 AM,73.0,66.0,79,29.95,10.0,North,6.9,-,N/A,,Clear,10,2013-08-17 08:53:00
4:53 AM,71.1,64.9,81,29.95,10.0,North,8.1,-,N/A,,Clear,10,2013-08-17 09:53:00
5:53 AM,70.0,64.9,84,29.95,10.0,North,8.1,-,N/A,,Clear,10,2013-08-17 10:53:00
6:53 AM,69.1,64.9,87,29.96,10.0,North,5.8,-,N/A,,Clear,10,2013-08-17 11:53:00
7:53 AM,71.1,66.0,84,29.97,10.0,North,8.1,-,N/A,,Clear,360,2013-08-17 12:53:00
8:53 AM,75.0,68.0,79,29.98,10.0,NNE,6.9,-,N/A,,Clear,20,2013-08-17 13:53:00
9:53 AM,79.0,70.0,74,29.98,10.0,NNE,5.8,-,N/A,,Clear,20,2013-08-17 14:53:00
10:53 AM,82.0,71.1,69,29.98,10.0,NE,6.9,-,N/A,,Clear,50,2013-08-17 15:53:00
11:53 AM,84.0,70.0,63,29.97,10.0,NNE,12.7,18.4,N/A,,Partly Cloudy,30,2013-08-17 16:53:00
12:53 PM,87.1,66.9,51,29.96,10.0,NNE,12.7,-,N/A,,Partly Cloudy,30,2013-08-17 17:53:00
1:53 PM,86.0,68.0,55,29.94,10.0,ENE,11.5,-,N/A,,Mostly Cloudy,70,2013-08-17 18:53:00
2:53 PM,88.0,69.1,53,29.92,10.0,NE,8.1,-,N/A,,Scattered Clouds,50,2013-08-17 19:53:00
3:53 PM,87.1,69.1,55,29.92,10.0,ENE,8.1,-,N/A,,Partly Cloudy,60,2013-08-17 20:53:00
4:53 PM,88.0,69.1,53,29.91,10.0,NNE,9.2,-,N/A,,Clear,20,2013-08-17 21:53:00
5:53 PM,87.1,71.1,59,29.91,10.0,ENE,6.9,-,N/A,,Scattered Clouds,60,2013-08-17 22:53:00
6:53 PM,80.1,69.1,69,29.92,10.0,NE,3.5,-,N/A,,Partly Cloudy,50,2013-08-17 23:53:00
7:53 PM,79.0,72.0,79,29.93,10.0,Calm,Calm,-,N/A,,Clear,0,2013-08-18 00:53:00
8:53 PM,77.0,72.0,84,29.95,10.0,NE,6.9,-,N/A,,Partly Cloudy,40,2013-08-18 01:53:00
9:53 PM,77.0,72.0,84,29.97,10.0,Calm,Calm,-,N/A,,Mostly Cloudy,0,2013-08-18 02:53:00
10:53 PM,75.9,72.0,87,29.96,10.0,NE,4.6,-,N/A,,Mostly Cloudy,50,2013-08-18 03:53:00
11:53 PM,75.0,71.1,87,29.96,10.0,Calm,Calm,-,N/A,,Clear,0,2013-08-18 04:53:00